Hourly Data Report for December 24, 2017

MUSKOKA
ONTARIO

44°58'29.000" N
79°18'12.000" W
281.90 m
6115529
71532
YQA

Download Data

Hourly Data (December 2017)
Hourly Data Report for December 24, 2017
TIME
LST
Temp Definition
°C
Dew Point Definition
°C
Rel Hum Definition
%
Precip. Amount Definition
mm

Wind Dir Definition
10's deg

Wind Spd Definition
km/h
Visibility Definition
km
Stn Press Definition
kPa
Hmdx Definition


Wind Chill Definition


Weather Definition


00:00 -3.4 -9.1 65 0.0 30 11 16.1 98.33   -8 Snow
01:00 -4.8 -8.2 77 0.0 33 9 16.1 98.39   -9 Snow
02:00 -4.9 -8.5 76 0.0 31 17 16.1 98.46   -11 Snow
03:00 -5.6 -10.5 69 0.0 31 13 16.1 98.56   -11 Snow
04:00 -6.1 -11.1 68 0.0 31 11 16.1 98.60   -11 LegendNANA
05:00 -7.0 -15.2 52 0.0 31 13 16.1 98.75   -13 LegendNANA
06:00 -7.9 -15.9 53 0.0 31 9 16.1 98.81   -12 LegendNANA
07:00 -9.1 -15.2 61 0.0 LegendMM 4 16.1 98.80   -11 LegendNANA
08:00 -12.8 -15.7 79 0.0 15 4 16.1 98.84   -15 LegendNANA
09:00 -11.2 -15.3 72 0.0 12 5 16.1 98.90   -14 LegendNANA
10:00 -8.2 -14.7 60 0.0 12 8 16.1 98.89   -12 LegendNANA
11:00 -6.6 -13.7 57 0.0 15 9 16.1 98.86   -11 LegendNANA
12:00 -5.4 -14.1 51 0.0 13 9 16.1 98.77   -9 LegendNANA
13:00 -5.0 -13.2 53 0.0 16 9 16.1 98.64   -9 LegendNANA
14:00 -4.7 -12.7 54 0.0 14 9 16.1 98.53   -9 LegendNANA
15:00 -4.4 -12.2 55 0.0 11 8 16.1 98.41   -8 LegendNANA
16:00 -4.6 -12.0 57 0.0 13 5 16.1 98.45   -7 LegendNANA
17:00 -5.1 -11.7 60 0.0 7 4 16.1 98.42   -7 LegendNANA
18:00 -5.8 -8.9 79 0.0 LegendMM 4 4.0 98.37   -8 Snow
19:00 -6.2 -8.1 87 0.0 LegendMM 4 4.0 98.26   -8 Snow
20:00 -6.3 -8.1 87 0.0 7 9 3.6 98.09   -11 Snow
21:00 -6.4 -8.2 87 0.0 7 9 4.8 97.89   -11 Snow
22:00 -6.7 -8.4 88 0.0 8 11 1.6 97.68   -12 Snow
23:00 -7.2 -9.0 87 0.0 6 11 1.6 97.54   -12 Snow

Notes on Data Quality.

Legend

  • E = Estimated
  • M = Missing
  • NA = Not Available*
  • [empty] = Indicates an unobserved value
Date modified: